Regional Weather Roundup
Issued by NWS

Home | Current Version | Previous Version | Text Only | Print | Product List | Glossary Off
Versions: 1 2 3 4 5 6 7 8 9 10 11 12 13 14 15 16 17 18 19 20 21 22 23 24 25 26 27 28 29 30 31 32 33 34 35 36 37 38 39 40 41 42 43 44 45 46 47 48 49 50

102
ASUS43 KBIS 240010
RWRND

NORTH DAKOTA REGIONAL WEATHER ROUNDUP
NATIONAL WEATHER SERVICE BISMARCK ND
700 PM CDT WED AUG 23 2017

NOTE: "FAIR" INDICATES FEW OR NO CLOUDS BELOW 12,000 FEET WITH NO
SIGNIFICANT WEATHER AND/OR OBSTRUCTIONS TO VISIBILITY.


NDZ001>003-009>011-017-240100-
NORTHWEST NORTH DAKOTA

CITY           SKY/WX    TMP DP  RH WIND       PRES   REMARKS
WILLISTON      SUNNY     89  46  22 S6        29.90F
6HR MIN TEMP:  84; 6HR MAX TEMP:  91;

MINOT          SUNNY     82  53  36 NE16G23   29.91S
MINOT AFB      SUNNY     81  52  36 E20       29.90S
$$

NDZ018>021-031>035-040>046-240100-
SOUTHWEST NORTH DAKOTA

CITY           SKY/WX    TMP DP  RH WIND       PRES   REMARKS
BISMARCK       SUNNY     81  56  42 S9        29.94F
6HR MIN TEMP:  79; 6HR MAX TEMP:  85;

DICKINSON      SUNNY     85  48  27 CALM      29.93F
GARRISON         N/A     80  56  43 S9        29.92F
6HR MIN TEMP:  79; 6HR MAX TEMP:  84;

HETTINGER ARPT SUNNY     83  51  33 E9        29.97F
$$

NDZ004>008-012>016-024-026-027-054-240100-
NORTHEAST NORTH DAKOTA

CITY           SKY/WX    TMP DP  RH WIND       PRES   REMARKS
GRAND FORKS    CLOUDY    66  53  63 E24G31    30.03S
GRND FRKS AFB  CLOUDY    65  51  60 E21G28    30.03S
DEVILS LAKE    CLOUDY    69  53  56 E22G30    29.99R
$$

NDZ022-023-025-028>030-036>039-047>053-240100-
SOUTHEAST NORTH DAKOTA

CITY           SKY/WX    TMP DP  RH WIND       PRES   REMARKS
FARGO          SUNNY     74  53  48 SE7       29.98S
6HR MIN TEMP:  74; 6HR MAX TEMP:  78;

JAMESTOWN      SUNNY     76  56  49 SE7       29.96S
$$





USA.gov is the U.S. government's official web portal to all federal, state and local government web resources and services.